KD4TJG Weather Reports


Display with metric or nautical units.
time (UTC)temp
F
wind
direction
speed
MPH
gust
MPH
rain 1hr
in
rain 24hr
in
rain mn
in
humidity
%
barometer
mb
20260510173041 82 189 5.0 15.0 0.00 0.00 0.00 31 1015.4
20260510172521 82 229 6.0 15.0 0.00 0.00 0.00 30 1015.4
20260510172021 81 164 2.0 9.0 0.00 0.00 0.00 32 1015.3
20260510171548 81 191 2.0 9.0 0.00 0.00 0.00 33 1015.3
20260510171323 81 122 3.0 8.0 0.00 0.00 0.00 33 1017.3
20260510171020 81 148 5.0 9.0 0.00 0.00 0.00 33 1015.4
20260510170520 81 163 4.0 9.0 0.00 0.00 0.00 32 1015.4
20260510170331 82 142 3.0 7.0 0.00 0.00 0.00 31 1017.3
20260510170041 81 126 2.0 9.0 0.00 0.00 0.00 32 1015.5
20260510165522 80 214 4.0 10.0 0.00 0.00 0.00 31 1015.4
20260510165305 80 174 1.0 8.0 0.00 0.00 0.00 36 1017.5
20260510165023 80 0 1.0 10.0 0.00 0.00 0.00 35 1015.6
20260510164545 80 0 4.0 10.0 0.00 0.00 0.00 32 1015.6
20260510164314 81 144 4.0 8.0 0.00 0.00 0.00 35 1017.7
20260510164021 80 188 3.0 9.0 0.00 0.00 0.00 33 1015.7
20260510163521 81 191 5.0 9.0 0.00 0.00 0.00 35 1015.7
20260510163311 81 155 3.0 8.0 0.00 0.00 0.00 36 1017.7
20260510163040 80 191 4.0 9.0 0.00 0.00 0.00 34 1015.7
20260510162522 80 224 4.0 9.0 0.00 0.00 0.00 35 1015.8
20260510162335 80 142 2.0 8.0 0.00 0.00 0.00 34 1017.9
20260510162022 79 206 2.0 6.0 0.00 0.00 0.00 32 1015.8
20260510161534 79 215 2.0 7.0 0.00 0.00 0.00 27 1015.9
20260510161344 79 214 2.0 6.0 0.00 0.00 0.00 30 1017.9
20260510161021 79 212 2.0 7.0 0.00 0.00 0.00 35 1016.0
20260510160521 79 174 3.0 7.0 0.00 0.00 0.00 37 1015.9
20260510160041 79 200 2.0 6.0 0.00 0.00 0.00 39 1015.9
20260510155524 79 216 2.0 5.0 0.00 0.00 0.00 39 1015.9
20260510155022 79 24 1.0 9.0 0.00 0.00 0.00 36 1016.0
20260510154540 79 191 2.0 9.0 0.00 0.00 0.00 43 1015.9
20260510154052 78 2 1.0 6.0 0.00 0.00 0.00 40 1018.0
20260510154021 78 226 1.0 7.0 0.00 0.00 0.00 39 1016.0
20260510153521 77 279 2.0 5.0 0.00 0.00 0.00 40 1016.0
20260510153112 78 284 1.0 4.0 0.00 0.00 0.00 43 1018.1
20260510153041 78 259 1.0 4.0 0.00 0.00 0.00 46 1016.1
20260510152521 78 337 2.0 4.0 0.00 0.00 0.00 42 1016.0
20260510152127 78 220 1.0 4.0 0.00 0.00 0.00 45 1018.1
20260510152024 78 247 1.0 5.0 0.00 0.00 0.00 45 1016.0
20260510151544 77 218 2.0 5.0 0.00 0.00 0.00 45 1016.0
20260510151142 77 226 1.0 3.0 0.00 0.00 0.00 45 1018.0
20260510151021 77 138 1.0 4.0 0.00 0.00 0.00 44 1016.0
20260510150524 76 187 1.0 4.0 0.00 0.00 0.00 44 1016.2
20260510150125 77 307 0.0 4.0 0.00 0.00 0.00 46 1018.1
20260510150054 76 38 1.0 3.0 0.00 0.00 0.00 47 1016.1
20260510145522 75 21 1.0 5.0 0.00 0.00 0.00 44 1016.1
20260510145146 76 297 1.0 6.0 0.00 0.00 0.00 46 1018.1
20260510145021 76 210 3.0 7.0 0.00 0.00 0.00 44 1016.0
20260510144542 76 326 1.0 7.0 0.00 0.00 0.00 47 1016.0
20260510144113 76 213 2.0 6.0 0.00 0.00 0.00 46 1018.0
20260510144021 76 248 3.0 7.0 0.00 0.00 0.00 46 1016.0
20260510143521 75 235 3.0 7.0 0.00 0.00 0.00 46 1016.1
20260510143138 75 126 0.0 4.0 0.00 0.00 0.00 46 1018.2
20260510143041 74 0 1.0 5.0 0.00 0.00 0.00 47 1016.2
20260510142521 74 141 1.0 5.0 0.00 0.00 0.00 49 1016.1
20260510142120 75 307 1.0 3.0 0.00 0.00 0.00 51 1018.2
20260510142021 74 262 1.0 4.0 0.00 0.00 0.00 50 1016.2
20260510141541 73 331 1.0 4.0 0.00 0.00 0.00 49 1016.1
20260510141100 73 285 1.0 4.0 0.00 0.00 0.00 51 1018.2
20260510141022 73 253 1.0 4.0 0.00 0.00 0.00 51 1016.1
20260510140518 73 330 1.0 3.0 0.00 0.00 0.00 51 1016.1
20260510140041 72 0 0.0 5.0 0.00 0.00 0.00 55 1016.1
20260510140031 73 288 0.0 4.0 0.00 0.00 0.00 55 1018.2
20260510135521 72 332 1.0 5.0 0.00 0.00 0.00 55 1016.1
20260510135057 72 212 1.0 3.0 0.00 0.00 0.00 58 1018.2
20260510135024 72 226 2.0 5.0 0.00 0.00 0.00 59 1016.2
20260510134539 71 174 1.0 5.0 0.00 0.00 0.00 59 1016.2
20260510134051 71 273 1.0 3.0 0.00 0.00 0.00 61 1018.2
20260510134021 70 254 1.0 4.0 0.00 0.00 0.00 63 1016.1
20260510133521 70 319 1.0 4.0 0.00 0.00 0.00 63 1016.1
20260510133042 69 230 0.0 4.0 0.00 0.00 0.00 64 1016.0
20260510133039 70 230 0.0 4.0 0.00 0.00 0.00 64 1018.0
20260510132521 69 274 1.0 5.0 0.00 0.00 0.00 67 1016.0
20260510132025 69 204 1.0 4.0 0.00 0.00 0.00 68 1018.0
20260510132021 69 204 2.0 5.0 0.00 0.00 0.00 68 1016.0
20260510131543 68 258 0.0 2.0 0.00 0.00 0.00 74 1016.1
20260510131024 68 152 0.0 2.0 0.00 0.00 0.00 77 1018.1
20260510131021 68 152 0.0 2.0 0.00 0.00 0.00 77 1016.1
20260510130526 67 135 0.0 2.0 0.00 0.00 0.00 80 1015.9
20260510130041 66 135 0.0 3.0 0.00 0.00 0.00 82 1015.9
20260510125959 67 135 1.0 2.0 0.00 0.00 0.00 83 1017.9
20260510125520 65 135 1.0 3.0 0.00 0.00 0.00 86 1016.1
20260510125021 64 141 1.0 3.0 0.00 0.00 0.00 88 1016.0
20260510125006 65 141 0.0 1.0 0.00 0.00 0.00 88 1018.1
20260510124540 64 141 1.0 2.0 0.00 0.00 0.00 88 1016.1
20260510124023 63 141 0.0 3.0 0.00 0.00 0.00 89 1016.0
20260510123943 63 141 0.0 1.0 0.00 0.00 0.00 89 1018.0
20260510123522 61 141 1.0 3.0 0.00 0.00 0.00 89 1015.9
20260510123041 60 0 1.0 2.0 0.00 0.00 0.00 89 1015.8
20260510122943 60 170 0.0 1.0 0.00 0.00 0.00 89 1017.9
20260510122521 58 0 0.0 1.0 0.00 0.00 0.00 89 1015.7
20260510122021 56 0 0.0 1.0 0.00 0.00 0.00 89 1015.6
20260510122004 57 170 0.0 0.0 0.00 0.00 0.00 89 1017.6
20260510121540 55 0 0.0 1.0 0.00 0.00 0.00 89 1015.5
20260510121021 55 0 0.0 1.0 0.00 0.00 0.00 89 1015.5
20260510121014 55 105 0.0 0.0 0.00 0.00 0.00 89 1017.5
20260510120527 54 0 0.0 1.0 0.00 0.00 0.00 89 1015.2
20260510120039 53 0 0.0 1.0 0.00 0.00 0.00 89 1015.2
20260510115953 54 102 0.0 0.0 0.00 0.00 0.00 89 1017.2
20260510115524 53 0 0.0 1.0 0.00 0.00 0.00 89 1014.9
20260510115025 52 0 0.0 1.0 0.00 0.00 0.00 89 1014.9
20260510114945 53 102 0.0 0.0 0.00 0.00 0.00 89 1016.9
20260510114550 52 0 0.0 1.0 0.00 0.00 0.00 89 1014.8
20260510114021 51 0 0.0 0.0 0.00 0.00 0.00 89 1014.7
20260510113921 52 179 0.0 0.0 0.00 0.00 0.00 89 1016.7
20260510113520 51 0 0.0 0.0 0.00 0.00 0.00 89 1014.7
20260510113042 51 0 0.0 0.0 0.00 0.00 0.00 89 1014.6
20260510112900 51 179 0.0 0.0 0.00 0.00 0.00 89 1016.6
20260510112521 51 0 0.0 0.0 0.00 0.00 0.00 89 1014.6
20260510112021 51 0 0.0 0.0 0.00 0.00 0.00 89 1014.5
20260510111908 51 179 0.0 0.0 0.00 0.00 0.00 89 1016.5
20260510111541 51 0 0.0 0.0 0.00 0.00 0.00 89 1014.4
20260510111018 51 0 0.0 0.0 0.00 0.00 0.00 89 1014.4
20260510110839 51 179 0.0 0.0 0.00 0.00 0.00 89 1016.4
20260510110520 51 0 0.0 0.0 0.00 0.00 0.00 89 1014.4
20260510110044 51 0 0.0 0.0 0.00 0.00 0.00 89 1014.3
20260510105843 51 179 0.0 0.0 0.00 0.00 0.00 89 1016.3
20260510105520 51 0 0.0 0.0 0.00 0.00 0.00 89 1014.2
20260510105021 51 0 0.0 0.0 0.00 0.00 0.00 89 1014.0
20260510104811 51 179 0.0 0.0 0.00 0.00 0.00 89 1016.1
20260510104539 51 0 0.0 0.0 0.00 0.00 0.00 89 1014.0
20260510104020 51 0 0.0 0.0 0.00 0.00 0.00 89 1013.9
20260510103521 51 0 0.0 0.0 0.00 0.00 0.00 89 1013.8
20260510103040 51 0 0.0 0.0 0.00 0.00 0.00 89 1013.7
20260510102700 52 179 0.0 0.0 0.00 0.00 0.00 89 1015.7
20260510102521 52 0 0.0 0.0 0.00 0.00 0.00 89 1013.6
20260510102027 52 0 0.0 0.0 0.00 0.00 0.00 89 1013.6
20260510101639 52 179 0.0 0.0 0.00 0.00 0.00 89 1015.6
20260510101535 52 0 0.0 0.0 0.00 0.00 0.00 89 1013.5
20260510101021 52 0 0.0 0.0 0.00 0.00 0.00 89 1013.6
20260510100624 53 179 0.0 0.0 0.00 0.00 0.00 89 1015.6
20260510100521 52 0 0.0 0.0 0.00 0.00 0.00 89 1013.5
20260510100046 52 0 0.0 0.0 0.00 0.00 0.00 89 1013.5
20260510095604 53 179 0.0 0.0 0.00 0.00 0.00 89 1015.4
20260510095524 52 0 0.0 0.0 0.00 0.00 0.00 89 1013.4
20260510095020 53 0 0.0 0.0 0.00 0.00 0.00 89 1013.4
20260510094618 53 179 0.0 0.0 0.00 0.00 0.00 89 1015.3
20260510094547 53 0 0.0 0.0 0.00 0.00 0.00 89 1013.3
20260510094020 53 0 0.0 0.0 0.00 0.00 0.00 89 1013.2
20260510093520 53 0 0.0 0.0 0.00 0.00 0.00 89 1013.2
20260510093043 53 0 0.0 0.0 0.00 0.00 0.00 89 1013.2
20260510092539 53 179 0.0 0.0 0.00 0.00 0.00 89 1015.2
20260510092521 53 0 0.0 0.0 0.00 0.00 0.00 89 1013.2
20260510092023 53 0 0.0 0.0 0.00 0.00 0.00 89 1013.3
20260510091543 53 0 0.0 0.0 0.00 0.00 0.00 89 1013.2
20260510091020 53 0 0.0 0.0 0.00 0.00 0.00 89 1013.2
20260510090520 53 0 0.0 0.0 0.00 0.00 0.00 89 1013.2
20260510090420 54 179 0.0 0.0 0.00 0.00 0.00 89 1015.2
20260510090039 54 0 0.0 0.0 0.00 0.00 0.00 89 1013.1
20260510085521 54 0 0.0 0.0 0.00 0.00 0.00 89 1013.0
20260510085419 54 179 0.0 0.0 0.00 0.00 0.00 89 1015.0
20260510085021 54 0 0.0 1.0 0.00 0.00 0.00 89 1013.0
20260510084535 54 0 0.0 1.0 0.00 0.00 0.00 89 1013.0
20260510084436 55 179 0.0 0.0 0.00 0.00 0.00 89 1014.9
20260510084021 54 0 0.0 1.0 0.00 0.00 0.00 89 1012.9
20260510083521 54 0 0.0 0.0 0.00 0.00 0.00 89 1013.0
20260510083413 55 179 0.0 0.0 0.00 0.00 0.00 89 1015.0
20260510083053 54 0 0.0 0.0 0.00 0.00 0.00 89 1012.9
20260510082520 54 0 0.0 0.0 0.00 0.00 0.00 89 1012.8
20260510082022 55 0 0.0 0.0 0.00 0.00 0.00 89 1012.7
20260510081544 55 0 0.0 0.0 0.00 0.00 0.00 89 1012.7
20260510081250 55 179 0.0 0.0 0.00 0.00 0.00 89 1014.7
20260510081021 55 0 0.0 0.0 0.00 0.00 0.00 89 1012.5
20260510080521 55 0 0.0 0.0 0.00 0.00 0.00 89 1012.6
20260510080227 55 179 0.0 0.0 0.00 0.00 0.00 89 1014.5
20260510080042 55 0 0.0 0.0 0.00 0.00 0.00 89 1012.5
20260510075520 55 0 0.0 0.0 0.00 0.00 0.00 89 1012.5
20260510075225 56 179 0.0 0.0 0.00 0.00 0.00 89 1014.4
20260510075020 55 0 0.0 0.0 0.00 0.00 0.00 89 1012.4
20260510074541 55 0 0.0 0.0 0.00 0.00 0.00 88 1012.3
20260510074024 55 0 0.0 0.0 0.00 0.00 0.00 88 1012.3
20260510073521 56 0 0.0 0.0 0.00 0.00 0.00 88 1012.3
20260510073057 56 179 0.0 0.0 0.00 0.00 0.00 89 1014.3
20260510073044 56 0 0.0 0.0 0.00 0.00 0.00 89 1012.2
20260510072524 56 0 0.0 0.0 0.00 0.00 0.00 89 1012.3
20260510072035 57 179 0.0 1.0 0.00 0.00 0.00 88 1014.3
20260510072021 56 0 0.0 1.0 0.00 0.00 0.00 88 1012.3
20260510071538 56 0 0.0 1.0 0.00 0.00 0.00 88 1012.2
20260510071020 57 179 0.0 0.0 0.00 0.00 0.00 88 1014.2
20260510070521 56 0 1.0 2.0 0.00 0.00 0.00 88 1012.1
20260510070046 57 179 0.0 1.0 0.00 0.00 0.00 88 1012.0
20260510070034 57 179 0.0 0.0 0.00 0.00 0.00 88 1014.0
20260510065522 57 0 0.0 1.0 0.00 0.00 0.00 88 1012.1
20260510065024 57 0 0.0 1.0 0.00 0.00 0.00 88 1012.2
20260510065012 57 179 0.0 0.0 0.00 0.00 0.00 88 1014.2
20260510064542 57 0 0.0 2.0 0.00 0.00 0.00 88 1012.2
20260510064018 57 179 0.0 2.0 0.00 0.00 0.00 88 1012.3
20260510063955 57 179 0.0 0.0 0.00 0.00 0.00 88 1014.3
20260510063522 57 0 1.0 2.0 0.00 0.00 0.00 88 1012.3
20260510063041 57 0 0.0 0.0 0.00 0.00 0.00 88 1012.1
20260510063002 57 179 0.0 0.0 0.00 0.00 0.00 88 1014.2
20260510062522 57 0 0.0 0.0 0.00 0.00 0.00 88 1012.1
20260510062022 57 0 0.0 0.0 0.00 0.00 0.00 88 1012.3
20260510061949 58 179 0.0 0.0 0.00 0.00 0.00 88 1014.3
20260510061540 57 0 0.0 0.0 0.00 0.00 0.00 88 1012.3
20260510061022 57 0 0.0 2.0 0.00 0.00 0.00 88 1012.3
20260510061011 58 179 0.0 0.0 0.00 0.00 0.00 88 1014.3
20260510060525 57 0 0.0 2.0 0.00 0.00 0.00 88 1012.3
20260510060043 57 0 0.0 2.0 0.00 0.00 0.00 88 1012.3
20260510060009 58 179 0.0 0.0 0.00 0.00 0.00 88 1014.3
20260510055522 57 179 0.0 2.0 0.00 0.00 0.00 88 1012.2
20260510055033 58 179 0.0 1.0 0.00 0.00 0.00 88 1014.2
20260510055023 58 179 1.0 2.0 0.00 0.00 0.00 88 1012.2
20260510054542 58 179 0.0 2.0 0.00 0.00 0.00 88 1012.1
20260510054047 59 179 0.0 1.0 0.00 0.00 0.00 88 1014.1
20260510054026 58 179 1.0 2.0 0.00 0.00 0.00 88 1012.0
20260510053521 58 0 0.0 1.0 0.00 0.00 0.00 88 1012.3
20260510053043 58 0 0.0 1.0 0.00 0.00 0.00 88 1012.4
20260510053027 59 179 0.0 0.0 0.00 0.00 0.00 88 1014.4
20260510052522 59 0 0.0 1.0 0.00 0.00 0.00 88 1012.4
20260510052033 59 179 0.0 0.0 0.00 0.00 0.00 88 1014.5
20260510052024 59 0 0.0 1.0 0.00 0.00 0.00 88 1012.4
20260510051542 59 0 0.0 0.0 0.00 0.00 0.00 88 1012.5
20260510051037 59 179 0.0 0.0 0.00 0.00 0.00 88 1014.6
20260510051023 59 0 0.0 0.0 0.00 0.00 0.00 87 1012.6
20260510050522 59 0 0.0 0.0 0.00 0.00 0.00 87 1012.5
20260510050042 59 0 0.0 0.0 0.00 0.00 0.00 87 1012.6
20260510045526 59 0 0.0 2.0 0.00 0.00 0.00 87 1012.5
20260510045023 60 0 0.0 2.0 0.00 0.00 0.00 87 1012.4
20260510044830 60 179 0.0 0.0 0.00 0.00 0.00 87 1014.4
20260510044544 60 179 0.0 2.0 0.00 0.00 0.00 87 1012.5
20260510044022 60 0 0.0 2.0 0.00 0.00 0.00 87 1012.4
20260510043522 60 0 0.0 2.0 0.00 0.00 0.00 87 1012.5
20260510043036 60 179 1.0 2.0 0.00 0.00 0.00 87 1012.5
20260510042716 61 179 0.0 0.0 0.00 0.00 0.00 87 1014.4
20260510042523 60 0 0.0 1.0 0.00 0.00 0.00 87 1012.4
20260510042022 60 0 0.0 2.0 0.00 0.00 0.00 87 1012.4
20260510041729 61 179 0.0 0.0 0.00 0.00 0.00 86 1014.4
20260510041540 60 0 0.0 2.0 0.00 0.00 0.00 86 1012.4
20260510041022 61 179 0.0 1.0 0.00 0.00 0.00 86 1012.3
20260510040742 61 179 0.0 0.0 0.00 0.00 0.00 86 1014.5
20260510040523 61 0 0.0 1.0 0.00 0.00 0.00 86 1012.3
20260510040049 61 0 0.0 1.0 0.00 0.00 0.00 85 1012.3
20260510035728 62 179 0.0 0.0 0.00 0.00 0.00 85 1014.4
20260510035523 62 0 0.0 1.0 0.00 0.00 0.00 85 1012.4
20260510035022 62 0 0.0 2.0 0.00 0.00 0.00 85 1012.5
20260510034655 63 179 0.0 1.0 0.00 0.00 0.00 85 1014.7
20260510034542 62 0 0.0 2.0 0.00 0.00 0.00 85 1012.6
20260510034022 62 179 1.0 2.0 0.00 0.00 0.00 85 1012.6
20260510033630 63 179 0.0 1.0 0.00 0.00 0.00 84 1014.5
20260510033526 62 179 0.0 2.0 0.00 0.00 0.00 84 1012.4
20260510033042 63 0 1.0 2.0 0.00 0.00 0.00 84 1012.4
20260510032523 63 233 0.0 3.0 0.00 0.00 0.00 84 1012.5
20260510032024 63 180 1.0 3.0 0.00 0.00 0.00 84 1012.4
20260510031540 63 170 1.0 3.0 0.00 0.00 0.00 84 1012.5
20260510031022 63 181 1.0 3.0 0.00 0.00 0.00 84 1012.5
20260510030551 64 176 1.0 2.0 0.00 0.00 0.00 83 1014.5
20260510030522 63 176 1.0 3.0 0.00 0.00 0.00 83 1012.5
20260510030049 64 170 1.0 3.0 0.00 0.00 0.00 83 1012.5
20260510025522 64 172 1.0 4.0 0.00 0.00 0.00 83 1012.4
20260510025022 64 190 1.0 4.0 0.00 0.00 0.00 83 1012.3
20260510024539 64 172 2.0 6.0 0.00 0.00 0.00 83 1012.3
20260510024332 64 184 1.0 5.0 0.00 0.00 0.00 83 1014.4
20260510024022 64 193 1.0 6.0 0.00 0.00 0.00 82 1012.4
20260510023522 64 203 2.0 6.0 0.00 0.00 0.00 82 1012.2
20260510023354 65 175 1.0 5.0 0.00 0.00 0.00 82 1014.3
20260510023040 64 189 2.0 4.0 0.00 0.00 0.00 82 1012.3
20260510022522 64 185 1.0 4.0 0.00 0.00 0.00 81 1012.2
20260510022410 65 169 1.0 2.0 0.00 0.00 0.00 81 1014.2
20260510022021 65 159 2.0 3.0 0.00 0.00 0.00 81 1012.1
20260510021540 65 220 1.0 3.0 0.00 0.00 0.00 81 1012.1
20260510021337 65 175 0.0 3.0 0.00 0.00 0.00 80 1014.0
20260510021022 65 195 0.0 7.0 0.00 0.00 0.00 80 1012.0
20260510020524 65 201 1.0 7.0 0.00 0.00 0.00 80 1011.9
20260510020325 66 205 2.0 5.0 0.00 0.00 0.00 80 1014.0
20260510020041 65 206 3.0 7.0 0.00 0.00 0.00 80 1011.9
20260510015522 65 213 2.0 7.0 0.00 0.00 0.00 80 1012.0
20260510015334 66 172 1.0 5.0 0.00 0.00 0.00 80 1014.0
20260510015023 65 197 2.0 4.0 0.00 0.00 0.00 80 1011.9
20260510014536 65 193 1.0 4.0 0.00 0.00 0.00 79 1011.9
20260510014346 66 177 1.0 3.0 0.00 0.00 0.00 79 1013.9
20260510014022 66 155 2.0 4.0 0.00 0.00 0.00 79 1011.7
20260510013522 66 160 2.0 4.0 0.00 0.00 0.00 79 1011.7
20260510013403 66 177 1.0 3.0 0.00 0.00 0.00 79 1013.8
20260510013044 66 191 2.0 4.0 0.00 0.00 0.00 79 1011.6
20260510012522 65 0 1.0 4.0 0.00 0.00 0.00 80 1011.4
20260510012345 66 180 1.0 3.0 0.00 0.00 0.00 80 1013.4
20260510012022 65 0 1.0 4.0 0.00 0.00 0.00 79 1011.4
20260510011547 66 159 1.0 4.0 0.00 0.00 0.00 79 1011.2
20260510011318 66 156 0.0 2.0 0.00 0.00 0.00 78 1013.2
20260510011023 66 150 1.0 3.0 0.00 0.00 0.00 78 1011.1
20260510010522 66 212 0.0 3.0 0.00 0.00 0.00 78 1011.2
20260510010317 67 212 0.0 2.0 0.00 0.00 0.00 77 1013.1
20260510010041 66 0 0.0 6.0 0.00 0.00 0.00 77 1011.0
20260510005522 67 147 1.0 6.0 0.00 0.00 0.00 77 1010.9
20260510005300 67 143 1.0 2.0 0.00 0.00 0.00 77 1012.9
20260510005021 67 174 1.0 4.0 0.00 0.00 0.00 77 1010.8
20260510004547 67 156 1.0 3.0 0.00 0.00 0.00 76 1010.7
20260510004022 67 164 1.0 3.0 0.00 0.00 0.00 75 1010.7
20260510003522 68 188 1.0 3.0 0.00 0.00 0.00 74 1010.6
20260510003147 68 176 1.0 5.0 0.00 0.00 0.00 74 1012.6
20260510003043 68 0 0.0 4.0 0.00 0.00 0.00 74 1010.6
20260510002523 68 151 1.0 7.0 0.00 0.00 0.00 73 1010.5
20260510002156 69 156 2.0 6.0 0.00 0.00 0.00 73 1012.5
20260510002022 69 183 1.0 8.0 0.00 0.00 0.00 73 1010.6
20260510001540 69 165 2.0 8.0 0.00 0.00 0.00 73 1010.4
20260510001156 69 122 1.0 7.0 0.00 0.00 0.00 73 1012.4
20260510001022 69 195 3.0 8.0 0.00 0.00 0.00 72 1010.4
20260510000521 69 191 2.0 9.0 0.00 0.00 0.00 72 1010.4
20260510000121 70 181 3.0 10.0 0.00 0.00 0.00 72 1012.4
20260510000042 70 181 3.0 11.0 0.00 0.00 0.00 71 1010.4
20260509235522 70 192 3.0 11.0 0.00 0.00 0.00 71 1010.3
20260509235022 70 178 4.0 11.0 0.00 0.00 0.00 71 1010.3
20260509234544 70 147 4.0 11.0 0.00 0.00 0.00 71 1010.2
20260509234023 70 192 4.0 11.0 0.00 0.00 0.00 70 1010.3
20260509234021 71 230 4.0 10.0 0.00 0.00 0.00 70 1012.4
20260509233521 71 184 4.0 11.0 0.00 0.00 0.00 70 1010.2
20260509233042 71 179 4.0 8.0 0.00 0.00 0.00 70 1010.0
20260509233007 71 198 3.0 10.0 0.00 0.00 0.00 70 1012.1
20260509232523 71 237 3.0 8.0 0.00 0.00 0.00 69 1010.0
20260509232024 71 216 3.0 12.0 0.00 0.00 0.00 69 1009.9
20260509231946 71 167 4.0 10.0 0.00 0.00 0.00 69 1012.0
20260509231544 71 181 5.0 12.0 0.00 0.00 0.00 69 1010.0
20260509231022 71 206 3.0 12.0 0.00 0.00 0.00 68 1010.0
20260509230522 71 206 4.0 12.0 0.00 0.00 0.00 67 1009.9
20260509230040 72 182 3.0 10.0 0.00 0.00 0.00 67 1009.7
20260509225806 72 154 4.0 9.0 0.00 0.00 0.00 66 1011.9
20260509225523 72 175 3.0 10.0 0.00 0.00 0.00 66 1009.7
20260509225022 72 208 6.0 10.0 0.00 0.00 0.00 65 1009.6
20260509224805 73 195 3.0 9.0 0.00 0.00 0.00 65 1011.6
20260509224542 72 172 3.0 11.0 0.00 0.00 0.00 64 1009.5
20260509224022 72 174 4.0 11.0 0.00 0.00 0.00 64 1009.4
20260509223827 73 151 3.0 11.0 0.00 0.00 0.00 64 1011.5
20260509223522 73 181 3.0 13.0 0.00 0.00 0.00 63 1009.4
20260509223036 73 152 3.0 13.0 0.00 0.00 0.00 62 1009.6
20260509222836 74 188 5.0 11.0 0.00 0.00 0.00 62 1011.6
20260509222522 73 184 4.0 13.0 0.00 0.00 0.00 62 1009.5
20260509222022 74 125 5.0 11.0 0.00 0.00 0.00 62 1009.7
20260509221830 74 160 5.0 9.0 0.00 0.00 0.00 61 1011.7
20260509221535 74 230 5.0 11.0 0.00 0.00 0.00 60 1009.6
20260509221022 74 137 6.0 11.0 0.00 0.00 0.00 60 1009.5
20260509220826 75 187 4.0 9.0 0.00 0.00 0.00 61 1011.6
20260509220523 74 210 4.0 13.0 0.00 0.00 0.00 61 1009.5
20260509220041 74 107 6.0 13.0 0.00 0.00 0.00 61 1009.6
20260509215753 75 138 4.0 15.0 0.00 0.00 0.00 60 1011.5
20260509215522 75 192 6.0 13.0 0.00 0.00 0.00 60 1009.6
20260509215021 75 215 4.0 16.0 0.00 0.00 0.00 59 1009.5
20260509214734 75 181 5.0 15.0 0.00 0.00 0.00 61 1011.6
20260509214541 75 171 8.0 16.0 0.00 0.00 0.00 60 1009.5
20260509214021 75 183 5.0 12.0 0.00 0.00 0.00 59 1009.4
20260509213747 76 193 4.0 11.0 0.00 0.00 0.00 61 1011.5
20260509213522 75 218 4.0 12.0 0.00 0.00 0.00 61 1009.5
20260509213045 74 176 5.0 10.0 0.00 0.00 0.00 62 1009.5
20260509212725 74 131 4.0 12.0 0.00 0.00 0.00 63 1011.5
20260509212522 72 222 4.0 10.0 0.00 0.00 0.00 64 1009.4
20260509212022 72 199 5.0 13.0 0.00 0.00 0.00 63 1009.6
20260509211726 73 173 5.0 12.0 0.00 0.00 0.00 62 1011.7
20260509211541 72 153 5.0 13.0 0.00 0.00 0.00 62 1009.5
20260509211022 73 162 7.0 13.0 0.00 0.00 0.00 61 1009.4
20260509210702 74 252 4.0 10.0 0.00 0.00 0.00 60 1011.5
20260509210525 74 176 5.0 11.0 0.00 0.00 0.00 60 1009.4
20260509210053 73 209 5.0 12.0 0.00 0.00 0.00 61 1009.3
20260509205642 74 187 5.0 15.0 0.00 0.00 0.00 60 1011.2
20260509205522 74 199 6.0 12.0 0.00 0.00 0.00 60 1009.1
20260509205023 73 193 5.0 16.0 0.00 0.00 0.00 60 1009.1
20260509204634 74 179 6.0 15.0 0.00 0.00 0.00 61 1011.1
20260509204544 74 176 4.0 16.0 0.00 0.00 0.00 60 1009.1
20260509204027 74 176 8.0 16.0 0.00 0.00 0.00 60 1009.2
20260509203641 75 137 7.0 14.0 0.00 0.00 0.00 62 1011.2
20260509203521 74 157 7.0 14.0 0.00 0.00 0.00 61 1009.3
20260509203042 74 139 7.0 15.0 0.00 0.00 0.00 61 1009.4
20260509202640 74 147 6.0 14.0 0.00 0.00 0.00 61 1011.5
20260509202524 74 187 4.0 15.0 0.00 0.00 0.00 61 1009.4
20260509202022 74 178 8.0 15.0 0.00 0.00 0.00 63 1009.4
20260509201653 74 157 6.0 12.0 0.00 0.00 0.00 60 1011.5
20260509201542 74 170 6.0 13.0 0.00 0.00 0.00 61 1009.6
20260509201025 75 189 6.0 13.0 0.00 0.00 0.00 62 1009.4
20260509200522 74 176 6.0 14.0 0.00 0.00 0.00 62 1009.5
20260509200040 73 160 4.0 14.0 0.00 0.00 0.00 62 1009.5
20260509195525 76 118 4.0 12.0 0.00 0.00 0.00 60 1011.6
20260509195521 75 118 6.0 12.0 0.00 0.00 0.00 60 1009.5
20260509195022 75 150 5.0 13.0 0.00 0.00 0.00 63 1009.5
20260509194540 74 149 6.0 13.0 0.00 0.00 0.00 62 1009.5
20260509194022 74 154 7.0 13.0 0.00 0.00 0.00 62 1009.6
20260509193525 74 185 4.0 10.0 0.00 0.00 0.00 63 1009.9
20260509193418 74 202 3.0 15.0 0.00 0.00 0.00 62 1011.7
20260509193043 73 226 2.0 10.0 0.00 0.00 0.00 65 1009.8
20260509192523 73 110 4.0 18.0 0.00 0.00 0.00 65 1010.0
20260509192406 73 148 5.0 15.0 0.00 0.00 0.00 65 1012.0
20260509192022 72 195 6.0 18.0 0.00 0.00 0.00 65 1010.0
20260509191540 72 210 6.0 18.0 0.00 0.00 0.00 66 1010.0
20260509191419 72 176 4.0 11.0 0.00 0.00 0.00 66 1012.0
20260509191025 71 193 3.0 11.0 0.00 0.00 0.00 67 1010.1
20260509190522 71 162 6.0 12.0 0.00 0.00 0.00 67 1010.1
20260509190044 72 185 4.0 12.0 0.00 0.00 0.00 65 1010.0
20260509185523 72 181 3.0 10.0 0.00 0.00 0.00 66 1010.0
20260509185306 72 150 3.0 11.0 0.00 0.00 0.00 67 1012.0
20260509185023 72 273 3.0 14.0 0.00 0.00 0.00 67 1010.0
20260509184551 71 219 4.0 14.0 0.00 0.00 0.00 67 1010.1
20260509184239 71 189 4.0 11.0 0.00 0.00 0.00 67 1012.0
20260509184022 71 189 5.0 11.0 0.00 0.00 0.00 67 1010.1
20260509183523 71 170 2.0 12.0 0.00 0.00 0.00 67 1010.1
20260509183224 71 164 5.0 11.0 0.00 0.00 0.00 66 1012.2
20260509183042 71 184 5.0 12.0 0.00 0.00 0.00 66 1010.3
20260509182525 71 187 4.0 12.0 0.00 0.00 0.00 67 1010.3
20260509182227 71 172 4.0 10.0 0.00 0.00 0.00 66 1012.3
20260509182023 71 200 6.0 12.0 0.00 0.00 0.00 65 1010.2
20260509181555 71 180 4.0 8.0 0.00 0.00 0.00 64 1010.2
20260509181244 72 182 4.0 6.0 0.00 0.00 0.00 63 1012.4
20260509181023 72 204 5.0 8.0 0.00 0.00 0.00 63 1010.4
20260509180523 71 228 3.0 11.0 0.00 0.00 0.00 64 1010.4
20260509180046 71 230 5.0 13.0 0.00 0.00 0.00 65 1010.5
20260509175525 71 203 7.0 13.0 0.00 0.00 0.00 63 1010.7
20260509175122 72 157 4.0 13.0 0.00 0.00 0.00 62 1012.6
20260509175022 72 203 5.0 14.0 0.00 0.00 0.00 61 1010.7
20260509174537 73 184 5.0 14.0 0.00 0.00 0.00 60 1010.6
20260509174138 74 255 5.0 13.0 0.00 0.00 0.00 61 1012.6
20260509174022 74 220 7.0 15.0 0.00 0.00 0.00 60 1010.5
20260509173521 74 282 7.0 15.0 0.00 0.00 0.00 61 1010.6